Tracking 19219 objects as of 21-Jul-2018
HD Live streaming from Space Station
objects crossing your sky now

FENGYUN 1C DEB

Track FENGYUN 1C DEB now!
10-day predictions


NORAD ID: 31211
Int'l Code: 1999-025BKR
Perigee: 822.5 km
Apogee: 903.8 km
Inclination: 98.9 °
Period: 102.1 minutes
Semi major axis: 7234 km
RCS: 0.0093 m2 (small)
Launch date: May 10, 1999
Source: People's Republic of China (PRC)
Launch site: Taiyaun Space Center, China (TSC)

Note: This is SATELLITE DEBRIS
aabbcc
Your satellite tracking list
Your tracking list is empty




NASA's NSSDC Master Catalog

Two Line Element Set (TLE):
1 31211U 99025BKR 18201.34787619 +.00000476 +00000-0 +28529-3 0  9996
2 31211 098.9062 246.7641 0056170 214.4362 145.3164 14.10981966251125
Source of the keplerian elements: AFSPC